Starlink 31414

operational
NORAD ID: 59418 Int'l Des: 2024-064 Owner: SPXS Country: US Constellation: starlink
LEOCIRCULAR

关于 Starlink 31414

正在加载描述...

实时位置

正在加载3D地球...

即将过境

高度历史

Altitude vs Time

uPlot chart will show altitude changes over time

两行轨道根数

1 59418U 24064W 25260.21058377 -.00004366 00000-0 -14932-3 0 9994
2 59418 43.0000 315.9535 0000988 258.4997 101.5743 15.27560395 82695
Epoch: Sep 17, 2025 • Age: 14 hours

当前状态

高度 486.0 km
速度 7.62 km/s
星下点 -15.59°S, 12.22°E
发射日期 Apr 5, 2024
运行时间 1.4 years
类型 internet

技术详情

分类 Payload
质量 730.00 kg
干质量 700.00 kg
总质量 730.00 kg
长度 0.30 m
直径 4.10 m
跨度 29.00 m
形状 Box + pan
制造商 SPXS
平台类型 Starlink V2M
阶段状态 In Orbit
所有者/国家 SPXS/US

大型星座

Loading constellations...